Regional Weather Roundup
Issued by NWS

Home | Current Version | Previous Version | Graphics & Text | Print | Product List | Glossary On
Versions: 1 2 3 4 5 6 7 8 9 10 11 12 13 14 15 16 17 18 19 20 21 22 23 24 25 26 27 28 29 30 31 32 33 34 35 36 37 38 39 40 41 42 43 44 45 46 47 48 49 50
000
ASUS45 KCYS 240110
RWRWY

WYOMING REGIONAL WEATHER ROUNDUP
NATIONAL WEATHER SERVICE CHEYENNE WY
700 PM MDT SAT MAY 23 2015

NOTE:  "FAIR" INDICATES FEW OR NO CLOUDS BELOW 12,000 FEET
WITH NO SIGNIFICANT WEATHER AND/OR OBSTRUCTIONS TO VISIBILITY.

WYZ001-240200-
YELLOWSTONE NATIONAL PARK

CITY           SKY/WX    TMP DP  RH WIND       PRES   REMARKS
LK YELLOWSTONE   N/A     45  35  68 VRB5      30.08R
W YELLOWSTONE  NOT AVBL

$$
WYZ002>013-054>058-071-098>099-240200-
NORTHERN WYOMING

CITY           SKY/WX    TMP DP  RH WIND       PRES   REMARKS
JACKSON        PTSUNNY   54  43  66 VRB7      29.99S
CODY           CLOUDY    48  43  81 SW6       30.03R
GREYBULL       FAIR      64  46  52 NW17      29.93R
WORLAND        CLOUDY    57  45  64 SE13      29.96R
SHERIDAN       CLOUDY    53  47  79 NE5       30.02S
BUFFALO        PTSUNNY   50  48  93 N12       30.03S
GILLETTE       FAIR      55  46  71 N14       29.99R
HULETT         CLOUDY    54  46  76 E13       30.04R
NEWCASTLE      MOCLDY    59  45  58 SE10      29.98R THUNDER

$$
WYZ014>020-022>026-101>103-240200-
CENTRAL WYOMING

CITY           SKY/WX    TMP DP  RH WIND       PRES   REMARKS
BIG PINEY      CLOUDY    47  40  76 N8        29.98F
PINEDALE       FAIR      50  36  57 N3        30.00F
DUBOIS         CLOUDY    50  34  53 N7        30.00R
LANDER         CLOUDY    50  41  71 W9        29.98R
RIVERTON       NOT AVBL
CASPER         TSTM      56  41  57 NW13      29.93F
DOUGLAS        LGT RAIN  53  49  86 E16       29.95R

$$
WYZ021-027>030-104>119-240200-
SOUTHERN WYOMING

CITY           SKY/WX    TMP DP  RH WIND       PRES   REMARKS
EVANSTON       FAIR      47  38  71 N5        29.98R
KEMMERER       FAIR      46  39  76 NW8       29.99R
FORT BRIDGER   CLEAR     55  39  54 NW10      29.99R THUNDER
ROCK SPRINGS   FAIR      54  33  45 N6        29.94S
DIXON          FAIR      47  38  71 E13       29.99F
RAWLINS        CLOUDY    46  40  79 E7        29.98F
SARATOGA       CLOUDY    41  37  87 S8        30.02S
LARAMIE        PTSUNNY   49  39  68 S10       29.93F
CHEYENNE       CLOUDY    48  43  82 N3        29.94R
TORRINGTON     CLOUDY    53  52  96 SE6       29.91F
PINE BLUFFS    DRIZZLE   50  48  93 E10       29.93F

$$



USA.gov is the U.S. government's official web portal to all federal, state and local government web resources and services.